• In Deutschland
  • Länderverzeichnis
  • Für 7 Tage
  • Wassertemperatur
  • Satellitenkarten
  • Wetterkarte
  • Widgets
  • user-avatar
    Anmelden

    Stündliche Wetter Stolberg

    Heute, 26 April, Donnerstag

    Zeit Temperatur Niederschläge Wind Luftdruck Luftfeuchtigkeit
    00:00 +6°C° 0 mm 4 m/S 740 mmHg 81%
    01:00 +5°C° 0 mm 4 m/S 740 mmHg 83%
    02:00 +5°C° 0 mm 5 m/S 740 mmHg 85%
    03:00 +4°C° 0 mm 6 m/S 740 mmHg 87%
    04:00 +5°C° 0 mm 6 m/S 740 mmHg 85%
    05:00 +5°C° 0 mm 6 m/S 740 mmHg 83%
    06:00 +5°C° 0 mm 6 m/S 741 mmHg 82%
    07:00 +7°C° 0,1 mm 6 m/S 741 mmHg 77%
    08:00 +8°C° 0,1 mm 6 m/S 741 mmHg 73%
    09:00 +8°C° 0,1 mm 6 m/S 741 mmHg 68%
    10:00 +9°C° 0,1 mm 6 m/S 741 mmHg 63%
    11:00 +10°C° 0,1 mm 6 m/S 741 mmHg 59%
    12:00 +11°C° 0,1 mm 6 m/S 741 mmHg 54%
    13:00 +13°C° 0,2 mm 6 m/S 741 mmHg 54%
    14:00 +13°C° 0,2 mm 6 m/S 741 mmHg 54%
    15:00 +13°C° 0,2 mm 5 m/S 741 mmHg 55%
    16:00 +12°C° 0,1 mm 5 m/S 741 mmHg 60%
    17:00 +11°C° 0,1 mm 4 m/S 741 mmHg 64%
    18:00 +10°C° 0,1 mm 3 m/S 741 mmHg 69%
    19:00 +9°C° 0 mm 3 m/S 741 mmHg 73%
    20:00 +8°C° 0 mm 2 m/S 741 mmHg 76%
    21:00 +6°C° 0 mm 2 m/S 741 mmHg 80%
    22:00 +6°C° 0 mm 2 m/S 741 mmHg 81%
    23:00 +5°C° 0 mm 2 m/S 741 mmHg 81%

    Morgen, 27 April, Freitag

    Zeit Temperatur Niederschläge Wind Luftdruck Luftfeuchtigkeit
    00:00 +5°C° 0 mm 2 m/S 741 mmHg 82%
    01:00 +5°C° 0 mm 2 m/S 740 mmHg 82%
    02:00 +5°C° 0 mm 2 m/S 740 mmHg 81%
    03:00 +5°C° 0 mm 2 m/S 740 mmHg 81%
    04:00 +6°C° 0 mm 2 m/S 739 mmHg 79%
    05:00 +7°C° 0 mm 2 m/S 739 mmHg 78%
    06:00 +7°C° 0 mm 2 m/S 739 mmHg 77%
    07:00 +9°C° 0 mm 2 m/S 738 mmHg 71%
    08:00 +10°C° 0 mm 2 m/S 738 mmHg 66%
    09:00 +13°C° 0 mm 2 m/S 738 mmHg 61%
    10:00 +13°C° 0 mm 3 m/S 737 mmHg 57%
    11:00 +14°C° 0 mm 3 m/S 736 mmHg 53%
    12:00 +15°C° 0 mm 4 m/S 736 mmHg 49%
    13:00 +17°C° 0 mm 4 m/S 735 mmHg 48%
    14:00 +18°C° 0 mm 4 m/S 735 mmHg 47%
    15:00 +17°C° 0 mm 5 m/S 734 mmHg 46%
    16:00 +17°C° 0,1 mm 4 m/S 734 mmHg 54%
    17:00 +15°C° 0,1 mm 4 m/S 734 mmHg 62%
    18:00 +14°C° 0,1 mm 3 m/S 734 mmHg 69%
    19:00 +13°C° 0,1 mm 3 m/S 734 mmHg 74%
    20:00 +12°C° 0,1 mm 4 m/S 734 mmHg 79%
    21:00 +10°C° 0,1 mm 4 m/S 734 mmHg 85%
    22:00 +10°C° 0 mm 4 m/S 735 mmHg 85%
    23:00 +8°C° 0 mm 4 m/S 735 mmHg 86%

    übermorgen, 28 April, Samstag

    Zeit Temperatur Niederschläge Wind Luftdruck Luftfeuchtigkeit
    00:00 +7°C° 0 mm 4 m/S 735 mmHg 87%
    01:00 +7°C° 0 mm 4 m/S 735 mmHg 87%
    02:00 +7°C° 0 mm 4 m/S 735 mmHg 87%
    03:00 +6°C° 0 mm 5 m/S 736 mmHg 86%
    04:00 +7°C° 0,1 mm 4 m/S 736 mmHg 86%
    05:00 +7°C° 0,1 mm 4 m/S 737 mmHg 86%
    06:00 +7°C° 0,1 mm 4 m/S 737 mmHg 85%
    07:00 +8°C° 0,1 mm 4 m/S 738 mmHg 85%
    08:00 +8°C° 0,1 mm 4 m/S 738 mmHg 84%
    09:00 +10°C° 0,1 mm 3 m/S 739 mmHg 84%
    10:00 +10°C° 0,1 mm 3 m/S 739 mmHg 82%
    11:00 +11°C° 0,1 mm 3 m/S 739 mmHg 80%
    12:00 +11°C° 0,1 mm 3 m/S 739 mmHg 79%
    13:00 +11°C° 0,1 mm 3 m/S 739 mmHg 78%
    14:00 +12°C° 0,1 mm 2 m/S 739 mmHg 77%
    15:00 +12°C° 0,1 mm 2 m/S 738 mmHg 77%
    16:00 +12°C° 0 mm 2 m/S 738 mmHg 78%
    17:00 +10°C° 0 mm 2 m/S 738 mmHg 80%
    18:00 +10°C° 0 mm 2 m/S 738 mmHg 81%
    19:00 +9°C° 0 mm 2 m/S 738 mmHg 83%
    20:00 +9°C° 0 mm 2 m/S 738 mmHg 84%
    21:00 +8°C° 0 mm 2 m/S 738 mmHg 85%
    22:00 +8°C° 0,2 mm 2 m/S 738 mmHg 87%
    23:00 +8°C° 0,2 mm 2 m/S 738 mmHg 88%

    29 April, Sonntag

    Zeit Temperatur Niederschläge Wind Luftdruck Luftfeuchtigkeit
    00:00 +8°C° 0,2 mm 2 m/S 737 mmHg 89%
    01:00 +8°C° 0,5 mm 2 m/S 737 mmHg 90%
    02:00 +8°C° 0,5 mm 3 m/S 737 mmHg 92%
    03:00 +8°C° 0,5 mm 3 m/S 736 mmHg 93%
    04:00 +8°C° 0,6 mm 3 m/S 736 mmHg 93%
    05:00 +7°C° 0,6 mm 4 m/S 735 mmHg 92%
    06:00 +7°C° 0,6 mm 4 m/S 734 mmHg 92%
    07:00 +8°C° 2,2 mm 4 m/S 734 mmHg 91%
    08:00 +10°C° 2,2 mm 4 m/S 734 mmHg 90%
    09:00 +10°C° 2,2 mm 4 m/S 733 mmHg 90%
    10:00 +12°C° 0,1 mm 4 m/S 733 mmHg 85%
    11:00 +14°C° 0,1 mm 3 m/S 732 mmHg 80%
    12:00 +16°C° 0,1 mm 3 m/S 732 mmHg 76%
    13:00 +17°C° 0,4 mm 3 m/S 731 mmHg 75%
    14:00 +18°C° 0,4 mm 4 m/S 731 mmHg 74%
    15:00 +19°C° 0,4 mm 4 m/S 730 mmHg 73%
    16:00 +18°C° 1,3 mm 3 m/S 729 mmHg 78%
    17:00 +17°C° 1,3 mm 3 m/S 729 mmHg 83%
    18:00 +16°C° 1,3 mm 2 m/S 728 mmHg 88%
    19:00 +15°C° 3,4 mm 2 m/S 728 mmHg 90%
    20:00 +14°C° 3,4 mm 2 m/S 728 mmHg 92%
    21:00 +14°C° 3,4 mm 2 m/S 728 mmHg 94%
    22:00 +12°C° 0,4 mm 3 m/S 729 mmHg 93%
    23:00 +11°C° 0,4 mm 4 m/S 729 mmHg 91%

    30 April, Montag

    Zeit Temperatur Niederschläge Wind Luftdruck Luftfeuchtigkeit
    00:00 +9°C° 0,4 mm 5 m/S 729 mmHg 90%
    01:00 +9°C° 0 mm 5 m/S 729 mmHg 89%
    02:00 +8°C° 0 mm 5 m/S 729 mmHg 88%
    03:00 +8°C° 0 mm 6 m/S 729 mmHg 87%
    04:00 +7°C° 0 mm 6 m/S 729 mmHg 85%
    05:00 +7°C° 0 mm 6 m/S 729 mmHg 83%
    06:00 +7°C° 0 mm 6 m/S 729 mmHg 81%
    07:00 +8°C° 0 mm 7 m/S 729 mmHg 78%
    08:00 +7°C° 0 mm 8 m/S 729 mmHg 74%
    09:00 +9°C° 0 mm 8 m/S 729 mmHg 71%
    10:00 +7°C° 0,1 mm 9 m/S 730 mmHg 71%
    11:00 +7°C° 0,1 mm 9 m/S 730 mmHg 71%
    12:00 +7°C° 0,1 mm 9 m/S 730 mmHg 71%
    13:00 +6°C° 0,1 mm 10 m/S 731 mmHg 70%
    14:00 +6°C° 0,1 mm 10 m/S 731 mmHg 68%
    15:00 +6°C° 0,1 mm 11 m/S 731 mmHg 66%
    16:00 +6°C° 0,2 mm 10 m/S 732 mmHg 69%
    17:00 +5°C° 0,2 mm 9 m/S 732 mmHg 71%
    18:00 +5°C° 0,2 mm 9 m/S 733 mmHg 73%
    19:00 +4°C° 0 mm 8 m/S 734 mmHg 75%
    20:00 +4°C° 0 mm 7 m/S 734 mmHg 78%
    21:00 +3°C° 0 mm 7 m/S 735 mmHg 80%
    22:00 +3°C° 0 mm 6 m/S 736 mmHg 81%
    23:00 +3°C° 0 mm 6 m/S 736 mmHg 81%

    1 Mai, Dienstag

    Zeit Temperatur Niederschläge Wind Luftdruck Luftfeuchtigkeit
    00:00 +2°C° 0 mm 6 m/S 736 mmHg 82%
    01:00 +2°C° 0 mm 6 m/S 737 mmHg 80%
    02:00 +2°C° 0 mm 6 m/S 737 mmHg 79%
    03:00 +2°C° 0 mm 6 m/S 737 mmHg 77%
    04:00 +2°C° 0 mm 6 m/S 738 mmHg 76%
    05:00 +2°C° 0 mm 6 m/S 738 mmHg 75%
    06:00 +2°C° 0 mm 6 m/S 738 mmHg 74%
    07:00 +4°C° 0 mm 6 m/S 738 mmHg 70%
    08:00 +5°C° 0 mm 6 m/S 739 mmHg 65%
    09:00 +7°C° 0 mm 6 m/S 739 mmHg 61%
    10:00 +8°C° 0,1 mm 6 m/S 739 mmHg 60%
    11:00 +9°C° 0,1 mm 6 m/S 739 mmHg 58%
    12:00 +9°C° 0,1 mm 6 m/S 739 mmHg 57%
    13:00 +9°C° 0,2 mm 5 m/S 739 mmHg 58%
    14:00 +10°C° 0,2 mm 5 m/S 739 mmHg 59%
    15:00 +10°C° 0,2 mm 5 m/S 739 mmHg 60%
    16:00 +10°C° 0 mm 4 m/S 739 mmHg 62%
    17:00 +10°C° 0 mm 3 m/S 739 mmHg 64%
    18:00 +9°C° 0 mm 2 m/S 739 mmHg 66%
    19:00 +8°C° 0 mm 2 m/S 739 mmHg 71%
    20:00 +7°C° 0 mm 2 m/S 740 mmHg 76%
    21:00 +5°C° 0 mm 2 m/S 740 mmHg 81%
    22:00 +5°C° 0 mm 2 m/S 740 mmHg 83%
    23:00 +4°C° 0 mm 2 m/S 740 mmHg 85%
    Mehr zeigen